Change the Weather History Date:

Thursday, October 11, 2012

  Actual Average Record
Temperature  
Mean Temperature 79 °F 80 °F  
Max Temperature 88 °F 88 °F 94 °F (2007)
Min Temperature 70 °F 71 °F 46 °F (2000)
Degree Days  
Heating Degree Days 0 0  
Month to date heating degree days 0 0  
Since 1 July heating degree days 0 0  
Cooling Degree Days 14 14  
Month to date cooling degree days 183 168  
Year to date cooling degree days 3604 3345  
Growing Degree Days 28 (Base 50)    
Moisture  
Dew Point 69 °F    
Average Humidity 74    
Maximum Humidity 97    
Minimum Humidity 51    
Precipitation  
Precipitation 0.00 in 0.17 in 1.71 in (1947)
Month to date precipitation 1.55 2.10  
Year to date precipitation 34.38 46.31  
Snow  
Snow 0.00 in - - ()
Month to date snowfall 0.0  
Since 1 July snowfall 0.0  
Since 1 September snowfall 0.0  
Snow Depth 0.00 in    
Sea Level Pressure  
Sea Level Pressure 30.09 in    
Wind  
Wind Speed 9 mph (NE)    
Max Wind Speed 16 mph    
Max Gust Speed 21 mph    
Visibility 10 miles    
Events      
T = Trace of Precipitation, MM = Missing Value Source: NWS Daily Summary

Daily Weather History Graph

Daily Weather History Graph

Search for Another Location

Airport or City:

Trip Planner

Search our weather history database for the weather conditions in past years. The results will help you decide how hot, cold, wet, or windy it might be!

Date:

Astronomy

Oct. 11, 2012 Rise Set
Actual Time 7:24 AM EDT 7:02 PM EDT
Civil Twilight 7:01 AM EDT 7:25 PM EDT
Nautical Twilight 6:34 AM EDT 7:52 PM EDT
Astronomical Twilight 6:07 AM EDT 8:19 PM EDT
Moon 3:24 AM EDT (10/11) 4:19 PM EDT (10/11)
Length of Visible Light 12h 24m
Length of Day
11h 38m
Waning Crescent, 18% of the Moon is Illuminated
Oct 11
Waning Crescent
Oct 15
New
Oct 21
First Quarter
Oct 29
Full
Nov 6
Last Quarter

Hourly Weather History & Observations

Time (EDT) Temp. Heat Index Dew Point Humidity Pressure Visibility Wind Dir Wind Speed Gust Speed Precip Events Conditions
12:53 AM 75.0 °F - 72.0 °F 90% 30.07 in 10.0 mi NE 5.8 mph - N/A   Clear
1:08 AM 75.2 °F - 71.6 °F 89% 30.07 in 10.0 mi NE 5.8 mph - N/A   Partly Cloudy
1:53 AM 73.9 °F - 72.0 °F 93% 30.06 in 10.0 mi NE 4.6 mph - N/A   Clear
2:53 AM 73.0 °F - 72.0 °F 96% 30.05 in 8.0 mi NE 5.8 mph - N/A   Clear
3:53 AM 73.0 °F - 72.0 °F 96% 30.05 in 9.0 mi NE 8.1 mph - N/A   Clear
4:53 AM 72.0 °F - 70.0 °F 93% 30.06 in 10.0 mi NNE 6.9 mph - N/A   Clear
5:53 AM 71.1 °F - 68.0 °F 90% 30.06 in 10.0 mi NE 8.1 mph - N/A   Clear
6:53 AM 70.0 °F - 68.0 °F 93% 30.08 in 10.0 mi NE 9.2 mph - N/A   Clear
7:53 AM 71.1 °F - 68.0 °F 90% 30.09 in 9.0 mi NNE 6.9 mph - N/A   Clear
8:53 AM 75.0 °F - 69.1 °F 82% 30.11 in 10.0 mi NNE 5.8 mph - N/A   Clear
9:53 AM 77.0 °F - 69.1 °F 76% 30.12 in 10.0 mi NNE 11.5 mph - N/A   Clear
10:53 AM 80.1 °F 82.3 °F 66.9 °F 64% 30.13 in 10.0 mi NE 15.0 mph - N/A   Clear
11:53 AM 82.0 °F 84.5 °F 66.9 °F 60% 30.12 in 10.0 mi NE 12.7 mph - N/A   Clear
12:53 PM 84.0 °F 86.3 °F 66.0 °F 55% 30.11 in 10.0 mi ENE 11.5 mph - N/A   Clear
1:53 PM 86.0 °F 89.4 °F 68.0 °F 55% 30.09 in 10.0 mi NNE 10.4 mph - N/A   Clear
2:53 PM 87.1 °F 90.6 °F 68.0 °F 53% 30.07 in 10.0 mi ENE 12.7 mph - N/A   Partly Cloudy
3:53 PM 87.1 °F 91.3 °F 69.1 °F 55% 30.06 in 10.0 mi NE 10.4 mph - N/A   Partly Cloudy
4:53 PM 86.0 °F 89.4 °F 68.0 °F 55% 30.06 in 10.0 mi NE 15.0 mph - N/A   Partly Cloudy
7:53 PM 78.1 °F - 66.9 °F 68% 30.09 in 10.0 mi ENE 5.8 mph - N/A   Clear
8:53 PM 77.0 °F - 68.0 °F 74% 30.11 in 10.0 mi NE 5.8 mph - N/A   Clear
9:53 PM 75.0 °F - 68.0 °F 79% 30.12 in 10.0 mi NE 6.9 mph - N/A   Clear
11:53 PM 73.9 °F - 68.0 °F 82% 30.12 in 10.0 mi NNE 8.1 mph - N/A   Clear